Location: Unspecified
(48.7670°N, 0.0000°E)
Time: 03:27:42
(UTC+00:00)

Vanguard 2 Rocket - Pass Details

Date: 05 October 2020
Orbit: 554 x 3326 km, 32.9° (Epoch: 26 October)

Event Time Altitude Azimuth Distance (km) Brightness Sun altitude
Exits shadow 04:59:48 13° 259° (W) 5,653 10.2 -11.7°
Maximum altitude 05:15:19 40° 202° (SSW) 4,297 10.1 -9.1°
Drops below altitude 10° 05:31:59 10° 142° (SE) 5,796 11.6 -6.4°
Sets 05:36:25 0° 135° (SE) 6,534 12.0 -5.7°
